******** Week 151 almanac for PRN-1 ******** ID: 1 Health: 0 Eccentricity: 0.01147651672 Time of Applicability(s): 405504 Orbital Inclination(rad): 0.9869991916 Rate of Right Ascen(r/s): -7.726036106e-09 SQRT(A) (m 1/2): 5153.625488 Right Ascen at Week(rad): -2.163065711 Argument of Perigee(rad): 0.8831710881 Mean Anom(rad): -2.269849274 Af0(s): 0.0003301093506 Af1(s/s): -1.091394e-11 week: 151 ******** Week 151 almanac for PRN-2 ******** ID: 2 Health: 0 Eccentricity: 0.02061080933 Time of Applicability(s): 405504 Orbital Inclination(rad): 0.9653377051 Rate of Right Ascen(r/s): -7.828897533e-09 SQRT(A) (m 1/2): 5153.65625 Right Ascen at Week(rad): -2.252661274 Argument of Perigee(rad): -1.435599665 Mean Anom(rad): -2.132866213 Af0(s): -0.0005147595581 Af1(s/s): 0 week: 151 ******** Week 151 almanac for PRN-3 ******** ID: 3 Health: 0 Eccentricity: 0.003907203674 Time of Applicability(s): 405504 Orbital Inclination(rad): 0.9724862952 Rate of Right Ascen(r/s): -8.240343243e-09 SQRT(A) (m 1/2): 5153.612793 Right Ascen at Week(rad): -1.127751891 Argument of Perigee(rad): 0.9517242252 Mean Anom(rad): 2.86706215 Af0(s): -0.0001160658447 Af1(s/s): -1.818989e-11 week: 151 ******** Week 151 almanac for PRN-4 ******** ID: 4 Health: 0 Eccentricity: 0.001734733582 Time of Applicability(s): 405504 Orbital Inclination(rad): 0.9616465638 Rate of Right Ascen(r/s): -7.771752296e-09 SQRT(A) (m 1/2): 5153.605469 Right Ascen at Week(rad): -0.0464216442 Argument of Perigee(rad): -3.035913513 Mean Anom(rad): -0.5092879884 Af0(s): -0.0001469664917 Af1(s/s): 3.637979e-12 week: 151 ******** Week 151 almanac for PRN-5 ******** ID: 5 Health: 0 Eccentricity: 0.005863666534 Time of Applicability(s): 405504 Orbital Inclination(rad): 0.9594774191 Rate of Right Ascen(r/s): -8.388920861e-09 SQRT(A) (m 1/2): 5153.615723 Right Ascen at Week(rad): -1.16838478 Argument of Perigee(rad): 1.008566902 Mean Anom(rad): 0.3863575543 Af0(s): -5.803292236e-05 Af1(s/s): 0 week: 151 ******** Week 151 almanac for PRN-6 ******** ID: 6 Health: 0 Eccentricity: 0.002691268921 Time of Applicability(s): 405504 Orbital Inclination(rad): 0.9863760119 Rate of Right Ascen(r/s): -7.714607058e-09 SQRT(A) (m 1/2): 5153.63623 Right Ascen at Week(rad): -2.171335575 Argument of Perigee(rad): -0.9329363311 Mean Anom(rad): -1.966133811 Af0(s): 0.0001733450928 Af1(s/s): 1.091394e-11 week: 151 ******** Week 151 almanac for PRN-7 ******** ID: 7 Health: 0 Eccentricity: 0.01562452316 Time of Applicability(s): 405504 Orbital Inclination(rad): 0.9509626273 Rate of Right Ascen(r/s): -8.000333246e-09 SQRT(A) (m 1/2): 5153.635254 Right Ascen at Week(rad): 0.9719925456 Argument of Perigee(rad): -2.288469389 Mean Anom(rad): -2.94151602 Af0(s): 0.0002479588501 Af1(s/s): 3.637979e-12 week: 151 ******** Week 151 almanac for PRN-8 ******** ID: 8 Health: 0 Eccentricity: 0.007361412048 Time of Applicability(s): 405504 Orbital Inclination(rad): 0.9648103992 Rate of Right Ascen(r/s): -7.760323248e-09 SQRT(A) (m 1/2): 5153.682129 Right Ascen at Week(rad): 3.040502722 Argument of Perigee(rad): 0.1181367441 Mean Anom(rad): -0.02458376487 Af0(s): -4.59741333e-05 Af1(s/s): 0 week: 151 ******** Week 151 almanac for PRN-9 ******** ID: 9 Health: 0 Eccentricity: 0.00220823288 Time of Applicability(s): 405504 Orbital Inclination(rad): 0.9546298001 Rate of Right Ascen(r/s): -7.863184676e-09 SQRT(A) (m 1/2): 5153.567871 Right Ascen at Week(rad): -0.09948479605 Argument of Perigee(rad): 1.880116288 Mean Anom(rad): 0.357059495 Af0(s): -0.0002781058228 Af1(s/s): 3.637979e-12 week: 151 ******** Week 151 almanac for PRN-10 ******** ID: 10 Health: 0 Eccentricity: 0.007537841797 Time of Applicability(s): 405504 Orbital Inclination(rad): 0.972312524 Rate of Right Ascen(r/s): -8.228914196e-09 SQRT(A) (m 1/2): 5153.622559 Right Ascen at Week(rad): -1.130534853 Argument of Perigee(rad): -2.504905615 Mean Anom(rad): 1.972283217 Af0(s): -0.0002652933594 Af1(s/s): -1.091394e-11 week: 151 ******** Week 151 almanac for PRN-11 ******** ID: 11 Health: 255 Eccentricity: 0.0002746582031 Time of Applicability(s): 405504 Orbital Inclination(rad): 0.9620959722 Rate of Right Ascen(r/s): -7.977475151e-09 SQRT(A) (m 1/2): 5153.728516 Right Ascen at Week(rad): -2.119678697 Argument of Perigee(rad): 2.786558868 Mean Anom(rad): -0.07777125305 Af0(s): -5.727924805e-05 Af1(s/s): 1.091394e-11 week: 151 ******** Week 151 almanac for PRN-12 ******** ID: 12 Health: 0 Eccentricity: 0.008723258972 Time of Applicability(s): 405504 Orbital Inclination(rad): 0.9698018289 Rate of Right Ascen(r/s): -8.114623721e-09 SQRT(A) (m 1/2): 5153.53125 Right Ascen at Week(rad): 2.085224799 Argument of Perigee(rad): 1.253354807 Mean Anom(rad): 2.695927418 Af0(s): -0.0001416907715 Af1(s/s): -7.275958e-12 week: 151 ******** Week 151 almanac for PRN-13 ******** ID: 13 Health: 0 Eccentricity: 0.005808353424 Time of Applicability(s): 405504 Orbital Inclination(rad): 0.9691007517 Rate of Right Ascen(r/s): -7.668890868e-09 SQRT(A) (m 1/2): 5153.635254 Right Ascen at Week(rad): 0.05354776394 Argument of Perigee(rad): 0.9515249875 Mean Anom(rad): -0.5673605463 Af0(s): 0.0002140435059 Af1(s/s): 7.275958e-12 week: 151 ******** Week 151 almanac for PRN-14 ******** ID: 14 Health: 0 Eccentricity: 0.001504421234 Time of Applicability(s): 405504 Orbital Inclination(rad): 0.9532036774 Rate of Right Ascen(r/s): -8.343204671e-09 SQRT(A) (m 1/2): 5153.584961 Right Ascen at Week(rad): 2.053659849 Argument of Perigee(rad): 3.019511603 Mean Anom(rad): 2.760525012 Af0(s): -7.159906006e-05 Af1(s/s): -3.637979e-12 week: 151 ******** Week 151 almanac for PRN-15 ******** ID: 15 Health: 0 Eccentricity: 0.01394176483 Time of Applicability(s): 405504 Orbital Inclination(rad): 0.9304396422 Rate of Right Ascen(r/s): -8.171768958e-09 SQRT(A) (m 1/2): 5153.695312 Right Ascen at Week(rad): -0.2059122034 Argument of Perigee(rad): 1.078457029 Mean Anom(rad): -1.010764135 Af0(s): -6.255496826e-05 Af1(s/s): 3.637979e-12 week: 151 ******** Week 151 almanac for PRN-16 ******** ID: 16 Health: 0 Eccentricity: 0.01279258728 Time of Applicability(s): 405504 Orbital Inclination(rad): 0.969753892 Rate of Right Ascen(r/s): -8.126052768e-09 SQRT(A) (m 1/2): 5153.551758 Right Ascen at Week(rad): 2.10384042 Argument of Perigee(rad): 0.71385309 Mean Anom(rad): 0.8410570238 Af0(s): -0.0003760834839 Af1(s/s): -3.637979e-12 week: 151 ******** Week 151 almanac for PRN-17 ******** ID: 17 Health: 0 Eccentricity: 0.01355695724 Time of Applicability(s): 405504 Orbital Inclination(rad): 0.9799764358 Rate of Right Ascen(r/s): -7.554600394e-09 SQRT(A) (m 1/2): 5153.727051 Right Ascen at Week(rad): 3.122595037 Argument of Perigee(rad): -1.495230546 Mean Anom(rad): -0.1102930689 Af0(s): 0.0004604950073 Af1(s/s): 3.637979e-12 week: 151 ******** Week 151 almanac for PRN-18 ******** ID: 18 Health: 0 Eccentricity: 0.002116203308 Time of Applicability(s): 405504 Orbital Inclination(rad): 0.9707845353 Rate of Right Ascen(r/s): -7.908900866e-09 SQRT(A) (m 1/2): 5153.569824 Right Ascen at Week(rad): -2.155491306 Argument of Perigee(rad): 3.091362649 Mean Anom(rad): -2.045618809 Af0(s): 0.0001801281616 Af1(s/s): -7.275958e-12 week: 151 ******** Week 151 almanac for PRN-19 ******** ID: 19 Health: 0 Eccentricity: 0.008999347687 Time of Applicability(s): 405504 Orbital Inclination(rad): 0.978760037 Rate of Right Ascen(r/s): -7.531742299e-09 SQRT(A) (m 1/2): 5153.647461 Right Ascen at Week(rad): -3.115753168 Argument of Perigee(rad): 2.014762051 Mean Anom(rad): 2.307247546 Af0(s): 9.948500976e-05 Af1(s/s): 3.637979e-12 week: 151 ******** Week 151 almanac for PRN-20 ******** ID: 20 Health: 0 Eccentricity: 0.005100250244 Time of Applicability(s): 405504 Orbital Inclination(rad): 0.9416688609 Rate of Right Ascen(r/s): -8.57178562e-09 SQRT(A) (m 1/2): 5153.695801 Right Ascen at Week(rad): -1.282763721 Argument of Perigee(rad): -3.137879792 Mean Anom(rad): -1.273418272 Af0(s): 0.0004084914795 Af1(s/s): 0 week: 151 ******** Week 151 almanac for PRN-21 ******** ID: 21 Health: 0 Eccentricity: 0.02457904816 Time of Applicability(s): 405504 Orbital Inclination(rad): 0.9595972614 Rate of Right Ascen(r/s): -7.840326581e-09 SQRT(A) (m 1/2): 5153.52832 Right Ascen at Week(rad): -2.25440011 Argument of Perigee(rad): -0.9932079942 Mean Anom(rad): 0.09105726439 Af0(s): 0.0001258636108 Af1(s/s): 0 week: 151 ******** Week 151 almanac for PRN-22 ******** ID: 22 Health: 0 Eccentricity: 0.01300573349 Time of Applicability(s): 405504 Orbital Inclination(rad): 0.9618023587 Rate of Right Ascen(r/s): -7.737465153e-09 SQRT(A) (m 1/2): 5153.621094 Right Ascen at Week(rad): 0.001881523311 Argument of Perigee(rad): -1.870155525 Mean Anom(rad): -0.2198476099 Af0(s): 0.0001756061157 Af1(s/s): 7.275958e-12 week: 151 ******** Week 151 almanac for PRN-23 ******** ID: 23 Health: 0 Eccentricity: 0.001998901367 Time of Applicability(s): 405504 Orbital Inclination(rad): 0.967357047 Rate of Right Ascen(r/s): -8.297488481e-09 SQRT(A) (m 1/2): 5153.644531 Right Ascen at Week(rad): -1.155483762 Argument of Perigee(rad): 2.984270117 Mean Anom(rad): -3.007534119 Af0(s): -3.014697266e-06 Af1(s/s): -3.637979e-12 week: 151 ******** Week 151 almanac for PRN-24 ******** ID: 24 Health: 0 Eccentricity: 0.01235532761 Time of Applicability(s): 405504 Orbital Inclination(rad): 0.9345202707 Rate of Right Ascen(r/s): -8.103194673e-09 SQRT(A) (m 1/2): 5153.640625 Right Ascen at Week(rad): 0.8889598433 Argument of Perigee(rad): 0.8100905356 Mean Anom(rad): -1.975520081 Af0(s): 0.0002140435059 Af1(s/s): -3.637979e-12 week: 151 ******** Week 151 almanac for PRN-25 ******** ID: 25 Health: 0 Eccentricity: 0.01054906845 Time of Applicability(s): 405504 Orbital Inclination(rad): 0.9572124006 Rate of Right Ascen(r/s): -8.286059433e-09 SQRT(A) (m 1/2): 5153.639648 Right Ascen at Week(rad): 2.008268099 Argument of Perigee(rad): 0.9866511252 Mean Anom(rad): 2.429604235 Af0(s): 0.0002321316895 Af1(s/s): 3.637979e-12 week: 151 ******** Week 151 almanac for PRN-26 ******** ID: 26 Health: 0 Eccentricity: 0.006907463074 Time of Applicability(s): 405504 Orbital Inclination(rad): 0.9380556171 Rate of Right Ascen(r/s): -8.514640383e-09 SQRT(A) (m 1/2): 5153.640137 Right Ascen at Week(rad): 1.96094202 Argument of Perigee(rad): 0.3781929266 Mean Anom(rad): 1.774900036 Af0(s): 0.0001484738403 Af1(s/s): 3.637979e-12 week: 151 ******** Week 151 almanac for PRN-27 ******** ID: 27 Health: 0 Eccentricity: 0.01033210754 Time of Applicability(s): 405504 Orbital Inclination(rad): 0.9735229307 Rate of Right Ascen(r/s): -7.646032773e-09 SQRT(A) (m 1/2): 5153.608398 Right Ascen at Week(rad): 3.060050116 Argument of Perigee(rad): 0.6448183369 Mean Anom(rad): -0.05150857317 Af0(s): 0.0001115437988 Af1(s/s): 1.455192e-11 week: 151 ******** Week 151 almanac for PRN-29 ******** ID: 29 Health: 0 Eccentricity: 0.001878261566 Time of Applicability(s): 405504 Orbital Inclination(rad): 0.9820017698 Rate of Right Ascen(r/s): -7.543171346e-09 SQRT(A) (m 1/2): 5153.704102 Right Ascen at Week(rad): 3.135633874 Argument of Perigee(rad): 2.244006042 Mean Anom(rad): 0.08060589675 Af0(s): -0.0003851275757 Af1(s/s): -3.637979e-12 week: 151 ******** Week 151 almanac for PRN-30 ******** ID: 30 Health: 0 Eccentricity: 0.005578994751 Time of Applicability(s): 405504 Orbital Inclination(rad): 0.9361141727 Rate of Right Ascen(r/s): -8.160339911e-09 SQRT(A) (m 1/2): 5153.516602 Right Ascen at Week(rad): 0.9848744638 Argument of Perigee(rad): -2.737577469 Mean Anom(rad): -2.894553213 Af0(s): -0.0004084914795 Af1(s/s): -3.637979e-12 week: 151 ******** Week 151 almanac for PRN-31 ******** ID: 31 Health: 0 Eccentricity: 0.01044178009 Time of Applicability(s): 405504 Orbital Inclination(rad): 0.9551630981 Rate of Right Ascen(r/s): -7.954617056e-09 SQRT(A) (m 1/2): 5153.645996 Right Ascen at Week(rad): 0.9901505188 Argument of Perigee(rad): 0.3794441546 Mean Anom(rad): 2.887366798 Af0(s): -0.0001318930054 Af1(s/s): 0 week: 151 ******** Week 151 almanac for PRN-32 ******** ID: 32 Health: 0 Eccentricity: 0.005709648132 Time of Applicability(s): 405504 Orbital Inclination(rad): 0.9584827284 Rate of Right Ascen(r/s): -7.794610391e-09 SQRT(A) (m 1/2): 5153.529785 Right Ascen at Week(rad): -0.08821513055 Argument of Perigee(rad): -2.331084918 Mean Anom(rad): 0.5734934734 Af0(s): -6.180129394e-05 Af1(s/s): -7.275958e-12 week: 151